Location: Washington
(38.8950°N, 77.0370°W)
Time: 16:36:00
(UTC-04:00)

Amateur Radio Satellites - All Passes

Search period start: 23 May 2017 16:06
Search period end: 24 May 2017 16:06
Location: Washington, 38.8950°N, 77.0370°W

Satellite Date Start Highest point End Downlink Frequencies (MHz)
Time Altitude Azimuth
BEESAT 2 23 May 16:10:39 16:14:39 54° 56° (NE) 16:18:35 435.950
CUBESAT XI-V 23 May 16:34:46 16:36:54 13° 90° (E) 16:39:02 437.345
BEESAT 3 23 May 16:39:45 16:43:01 24° 248° (WSW) 16:46:13 437.485
ITUPSAT 1 23 May 16:43:51 16:48:30 49° 288° (WNW) 16:53:08 437.325
CUTE-I 23 May 17:05:31 17:07:16 12° 59° (ENE) 17:09:00 437.470
NO-84 23 May 17:12:00 17:15:30 44° 39° (NE) 17:18:41 435.350 FM
ITAMSAT 1 23 May 17:14:57 17:17:14 13° 269° (W) 17:19:33 435.822/435.867
KKS-1 23 May 17:16:13 17:20:08 30° 97° (E) 17:24:00 437.445
AO-7 23 May 17:17:24 17:23:57 26° 265° (W) 17:30:34 .
BEESAT 23 May 17:20:40 17:24:17 22° 294° (WNW) 17:27:53 436.000
LilacSat-2 23 May 17:23:59 17:25:47 13° 66° (ENE) 17:27:34 437.200
DOVE 4 23 May 17:31:51 17:36:06 34° 72° (ENE) 17:40:08 437.250
MOZHAYETS 4 23 May 17:34:13 17:38:00 25° 292° (WNW) 17:41:46
BEESAT 2 23 May 17:50:17 17:51:54 12° 252° (WSW) 17:53:31 435.950
STARS 23 May 17:57:04 18:01:06 35° 98° (E) 18:05:07 437.465
XW-2D 23 May 18:00:45 18:04:12 34° 72° (ENE) 18:07:41 145.860 - 145.880
XW-2B 23 May 18:08:26 18:12:01 41° 73° (ENE) 18:15:38 145.730 - 145.750
CUBESAT XI-V 23 May 18:10:03 18:14:37 57° 286° (WNW) 18:19:09 437.345
XW-2C 23 May 18:21:43 18:25:28 63° 76° (ENE) 18:29:15 145.795 - 145.815
XW-2F 23 May 18:23:25 18:27:10 63° 76° (ENE) 18:30:57 145.980 - 146.000
NUDT-PHONESAT 23 May 18:33:28 18:37:08 68° 76° (ENE) 18:40:52 437.300
KAITUO 1B 23 May 18:36:59 18:40:43 78° 77° (ENE) 18:44:31 145.475/437.950
CUTE-I 23 May 18:41:11 18:46:30 90° 258° (WSW) 18:51:51 437.470
HO-68 23 May 18:44:06 18:50:23 34° 63° (ENE) 18:56:41 435.675
NO-84 23 May 18:50:37 18:52:39 15° 237° (WSW) 18:54:35 435.350 FM
KKS-1 23 May 18:53:00 18:56:31 23° 292° (WNW) 19:00:01 437.445
LilacSat-2 23 May 18:56:01 18:59:39 42° 261° (W) 19:03:19 437.200
DOVE 4 23 May 19:10:10 19:13:48 22° 265° (W) 19:17:18 437.250
CUTE 1.7 + AOD 2 23 May 19:16:41 19:20:37 37° 72° (ENE) 19:24:35 437.475
CUBEBUG 2 23 May 19:19:53 19:22:45 18° 67° (ENE) 19:25:38 437.445
STARS 23 May 19:34:01 19:37:11 20° 293° (WNW) 19:40:21 437.465
XW-2D 23 May 19:36:22 19:38:30 14° 268° (W) 19:40:38 145.860 - 145.880
UWE-3 23 May 19:37:38 19:40:24 17° 66° (ENE) 19:43:12 435.000/436.395/437.385
XW-2B 23 May 19:44:53 19:46:24 12° 269° (W) 19:47:55 145.730 - 145.750
PCSat 23 May 19:45:43 19:50:39 37° 110° (ESE) 19:55:37 145.827
STRAND 1 23 May 19:46:25 19:50:40 26° 95° (E) 19:54:54 437.568
AAUSAT CUBESAT 2 23 May 19:47:52 19:51:15 24° 69° (ENE) 19:54:40 437.432
XW-2A 23 May 19:58:09 20:01:28 71° 259° (WSW) 20:04:49 145.665 - 145.685
SEEDS 23 May 20:12:15 20:16:29 78° 258° (WSW) 20:20:46 437.485
Oscar 11 23 May 20:23:33 20:27:01 24° 69° (ENE) 20:30:32 .
HO-68 23 May 20:31:05 20:37:52 45° 261° (W) 20:44:43 435.675
AO-73 23 May 20:45:18 20:49:20 51° 74° (ENE) 20:53:29 145.935
CUTE 1.7 + AOD 2 23 May 20:53:42 20:56:33 17° 267° (W) 20:59:26 437.475
CUBEBUG 2 23 May 20:55:23 20:59:06 33° 263° (W) 21:02:55 437.445
ZACube-1 23 May 20:57:05 21:01:15 80° 78° (ENE) 21:05:32 437.345
UWE-3 23 May 21:12:44 21:16:33 36° 263° (W) 21:20:28 435.000/436.395/437.385
M-CUBED/EXP-1 PRIME 23 May 21:18:23 21:21:21 30° 103° (ESE) 21:24:16 437.505
ISS 23 May 21:19:20 21:22:07 26° 133° (SE) 21:24:55 437.550
Tancredo 1 23 May 21:20:07 21:23:01 41° 137° (SE) 21:25:57 437.200
AAUSAT CUBESAT 2 23 May 21:23:08 21:26:36 25° 265° (W) 21:30:06 437.432
STRAND 1 23 May 21:25:12 21:29:52 36° 291° (WNW) 21:34:31 437.568
PCSat 23 May 21:29:20 21:34:05 30° 308° (NW) 21:38:52 145.827
EO-88 23 May 21:31:23 21:34:18 23° 70° (ENE) 21:37:15 145.990 - 145.960
Oscar 11 23 May 21:59:18 22:03:01 28° 264° (W) 22:06:45 .
FO-29 23 May 22:00:11 22:04:53 20° 94° (E) 22:09:54 435.910
DELFI C3 23 May 22:11:32 22:15:32 72° 260° (W) 22:19:31 145.870
AO-73 23 May 22:24:17 22:25:54 12° 270° (W) 22:27:31 145.935
TIGRISAT 23 May 22:24:56 22:28:35 23° 95° (E) 22:32:16 435.000
LO-87 23 May 22:26:48 22:28:40 14° 67° (ENE) 22:30:31 145.935 - 145.965
PRISM 23 May 22:28:17 22:31:56 31° 98° (E) 22:35:32 437.425
M-CUBED/EXP-1 PRIME 23 May 22:54:02 22:55:32 13° 299° (WNW) 22:57:00 437.505
UNISAT 6 23 May 22:55:01 22:59:31 53° 100° (E) 23:04:04 437.425
ISS 23 May 22:55:31 22:58:32 33° 329° (NNW) 23:01:33 437.550
Tancredo 1 23 May 22:56:26 22:58:54 22° 333° (NNW) 23:01:23 437.200
EO-88 23 May 23:05:12 23:07:55 20° 265° (W) 23:10:39 145.990 - 145.960
ESTCUBE 1 23 May 23:19:19 23:23:33 39° 71° (ENE) 23:27:47 437.505/2401.250
SO-50 23 May 23:32:38 23:37:13 74° 119° (ESE) 23:41:46 436.795
FO-29 23 May 23:43:55 23:50:09 66° 287° (WNW) 23:57:13 435.910
LO-87 23 May 23:58:34 00:01:48 32° 262° (W) 00:05:02 145.935 - 145.965
AIST 2D 23 May 23:59:42 00:02:56 31° 97° (E) 00:06:09 435.315
TIGRISAT 24 May 00:01:12 00:05:16 32° 289° (WNW) 00:09:23 435.000
PRISM 24 May 00:04:05 00:06:58 19° 293° (WNW) 00:09:51 437.425
EO-79 24 May 00:05:02 00:08:03 19° 94° (E) 00:11:05 145.935-145.965
50 SAT 24 May 00:05:04 00:06:32 12° 67° (ENE) 00:08:00 437.505
VELOX 1 24 May 00:29:10 00:33:31 59° 74° (ENE) 00:37:52 145.980
UNISAT 6 24 May 00:33:09 00:35:46 15° 295° (WNW) 00:38:24 437.425
ISS 24 May 00:34:51 00:35:49 11° 348° (NNW) 00:36:47 437.550
SPROUT 24 May 00:47:54 00:52:08 85° 259° (W) 00:56:23 437.525
NANOSAT C BR1 24 May 00:51:28 00:55:40 59° 101° (E) 00:59:51 145.865
POLYITAN 1 24 May 00:52:52 00:57:09 69° 102° (ESE) 01:01:24 437.675
ESTCUBE 1 24 May 00:57:21 01:00:28 18° 267° (W) 01:03:37 437.505/2401.250
QB50P2 24 May 01:01:21 01:05:37 86° 288° (WNW) 01:09:54 145.880/145.840
DUCHIFAT 1 24 May 01:03:56 01:08:11 75° 102° (ESE) 01:12:25 145.980
UKube-1 24 May 01:14:18 01:18:23 44° 72° (ENE) 01:22:29 .
DX 1 24 May 01:15:11 01:19:30 68° 74° (ENE) 01:23:49 434.975-435.025
SO-50 24 May 01:15:32 01:18:11 15° 317° (NW) 01:20:49 436.795
Oscar 19 24 May 01:15:50 01:16:43 10° 89° (E) 01:17:37 437.125/150
YUBILEINY 24 May 01:18:54 01:26:53 42° 87° (E) 01:34:55 435.215
RS-15 24 May 01:30:53 01:40:04 27° 101° (E) 01:49:25 29.354- 29.394
FO-29 24 May 01:33:28 01:34:18 10° 302° (WNW) 01:35:07 435.910
AIST 2D 24 May 01:33:55 01:35:51 14° 292° (WNW) 01:37:47 435.315
BUGSAT 1 24 May 01:35:05 01:39:06 49° 100° (E) 01:43:08 437.445
50 SAT 24 May 01:35:52 01:39:04 34° 262° (W) 01:42:16 437.505
EO-79 24 May 01:40:02 01:43:52 33° 289° (WNW) 01:47:42 145.935-145.965
Gurwin Techsat 1B 24 May 02:04:51 02:08:51 21° 94° (E) 02:12:49 435.225
VELOX 1 24 May 02:08:47 02:10:18 12° 269° (W) 02:11:50 145.980
Tancredo 1 24 May 02:12:15 02:12:34 10° 13° (NNE) 02:12:54 437.200
ITUPSAT 1 24 May 02:13:13 02:16:19 18° 64° (ENE) 02:19:28 437.325
ISS 24 May 02:13:13 02:13:33 10° 9° (N) 02:13:52 437.550
NANOSAT C BR1 24 May 02:29:19 02:30:52 12° 296° (WNW) 02:32:24 145.865
POLYITAN 1 24 May 02:31:34 02:32:19 10° 297° (WNW) 02:33:04 437.675
BEESAT 24 May 02:47:22 02:51:45 39° 70° (ENE) 02:56:11 436.000
Oscar 19 24 May 02:51:26 02:56:37 82° 285° (WNW) 03:01:46 437.125/150
UKube-1 24 May 02:52:08 02:54:36 15° 267° (W) 02:57:05 .
MOZHAYETS 4 24 May 02:57:41 03:01:26 26° 68° (ENE) 03:05:14
BUGSAT 1 24 May 03:12:02 03:14:02 13° 295° (WNW) 03:16:02 437.445
YUBILEINY 24 May 03:15:37 03:23:38 40° 286° (WNW) 03:31:46 435.215
AO-7 24 May 03:26:45 03:32:52 22° 94° (E) 03:38:57 .
CUBESAT XI-V 24 May 03:37:29 03:39:25 12° 63° (ENE) 03:41:21 437.345
RS-15 24 May 03:39:00 03:51:07 83° 301° (WNW) 04:03:36 29.354- 29.394
Gurwin Techsat 1B 24 May 03:43:55 03:48:58 45° 289° (WNW) 03:54:00 435.225
Tancredo 1 24 May 03:46:13 03:49:04 34° 32° (NNE) 03:51:55 437.200
ITAMSAT 1 24 May 03:46:45 03:51:07 26° 96° (E) 03:55:27 435.822/435.867
ISS 24 May 03:48:05 03:50:56 26° 29° (NNE) 03:53:46 437.550
ITUPSAT 1 24 May 03:49:09 03:53:45 48° 260° (W) 03:58:23 437.325
KKS-1 24 May 04:13:14 04:16:49 24° 68° (ENE) 04:20:24 437.445
O/OREOS (USA 219) 24 May 04:23:12 04:27:18 33° 104° (ESE) 04:31:25 437.305
BEESAT 24 May 04:26:09 04:29:38 20° 266° (W) 04:33:10 436.000
MOZHAYETS 4 24 May 04:34:28 04:38:27 29° 264° (W) 04:42:29
PCSat 24 May 04:34:47 04:39:16 25° 50° (NE) 04:43:42 145.827
STARS 24 May 04:52:34 04:56:14 27° 69° (ENE) 04:59:55 437.465
AO-85 24 May 05:11:19 05:15:10 34° 115° (ESE) 05:18:51 145.980
CUBESAT XI-V 24 May 05:11:29 05:16:10 69° 259° (W) 05:20:53 437.345
AO-7 24 May 05:17:57 05:26:18 76° 291° (WNW) 05:34:37 .
Tancredo 1 24 May 05:22:20 05:24:41 20° 228° (SW) 05:27:03 437.200
ISS 24 May 05:24:27 05:27:27 34° 225° (SW) 05:30:27 437.550
ITAMSAT 1 24 May 05:25:53 05:30:35 35° 291° (WNW) 05:35:17 435.822/435.867
KKS-1 24 May 05:49:24 05:53:14 28° 263° (W) 05:57:04 437.445
JUGNU 24 May 05:52:48 05:54:26 11° 176° (S) 05:56:04 437.505
RS-15 24 May 05:55:30 06:05:49 30° 328° (NNW) 06:16:14 29.354- 29.394
BEESAT 2 24 May 06:02:56 06:04:32 12° 108° (ESE) 06:06:09 435.950
O/OREOS (USA 219) 24 May 06:03:02 06:06:45 23° 301° (WNW) 06:10:27 437.305
PCSat 24 May 06:17:40 06:22:52 47° 248° (WSW) 06:28:01 145.827
BEESAT 3 24 May 06:27:11 06:31:06 71° 119° (ESE) 06:35:06 437.485
STARS 24 May 06:28:57 06:32:31 24° 264° (W) 06:36:05 437.465
LilacSat-2 24 May 06:30:47 06:33:48 21° 95° (E) 06:36:47 437.200
AO-85 24 May 06:52:26 06:55:36 21° 311° (NW) 06:58:42 145.980
CUTE-I 24 May 06:59:37 07:04:37 40° 98° (E) 07:09:36 437.470
STRAND 1 24 May 07:01:02 07:05:32 32° 68° (ENE) 07:10:03 437.568
XW-2D 24 May 07:08:03 07:11:53 62° 101° (ESE) 07:15:40 145.860 - 145.880
DOVE 4 24 May 07:08:39 07:12:48 74° 283° (WNW) 07:17:01 437.250
AO-7 24 May 07:12:55 07:17:41 17° 310° (NW) 07:22:29 .
XW-2B 24 May 07:15:53 07:19:45 76° 101° (ESE) 07:23:35 145.730 - 145.750
XW-2C 24 May 07:29:25 07:33:16 70° 284° (WNW) 07:37:05 145.795 - 145.815
XW-2F 24 May 07:30:38 07:34:29 71° 284° (WNW) 07:38:17 145.980 - 146.000
BEESAT 2 24 May 07:37:55 07:41:47 52° 304° (WNW) 07:45:44 435.950
NUDT-PHONESAT 24 May 07:38:43 07:42:29 70° 284° (WNW) 07:46:13 437.300
JUGNU 24 May 07:41:22 07:42:31 11° 186° (S) 07:43:39 437.505
KAITUO 1B 24 May 07:43:12 07:46:58 60° 285° (WNW) 07:50:42 145.475/437.950
SEEDS 24 May 07:58:09 08:01:08 19° 93° (E) 08:04:05 437.485
HO-68 24 May 07:59:50 08:06:30 39° 98° (E) 08:13:07 435.675
M-CUBED/EXP-1 PRIME 24 May 08:02:08 08:06:11 40° 68° (ENE) 08:10:00 437.505
LilacSat-2 24 May 08:04:49 08:08:00 25° 290° (WNW) 08:11:10 437.200
SO-50 24 May 08:05:06 08:09:27 45° 54° (NE) 08:13:47 436.795
BEESAT 3 24 May 08:07:24 08:09:09 12° 317° (NW) 08:10:55 437.485
SRMSAT 24 May 08:15:39 08:16:48 11° 174° (S) 08:17:58 437.500
RS-15 24 May 08:16:04 08:24:15 19° 4° (N) 08:32:20 29.354- 29.394
NO-84 24 May 08:29:14 08:31:15 13° 122° (ESE) 08:33:15 435.350 FM
AO-73 24 May 08:36:14 08:37:55 12° 90° (E) 08:39:35 145.935
CUTE 1.7 + AOD 2 24 May 08:37:58 08:42:16 89° 103° (ESE) 08:46:30 437.475
CUTE-I 24 May 08:40:08 08:44:25 25° 294° (WNW) 08:48:42 437.470
STRAND 1 24 May 08:40:22 08:44:40 28° 264° (W) 08:49:01 437.568
CUBEBUG 2 24 May 08:46:13 08:50:41 52° 100° (E) 08:55:14 437.445
ZACube-1 24 May 08:47:14 08:50:21 18° 93° (E) 08:53:29 437.345
XW-2A 24 May 08:53:37 08:57:00 54° 285° (WNW) 09:00:22 145.665 - 145.685
UWE-3 24 May 09:02:36 09:07:01 47° 99° (E) 09:11:29 435.000/436.395/437.385
AAUSAT CUBESAT 2 24 May 09:05:32 09:09:36 52° 99° (E) 09:13:36 437.432
PRISM 24 May 09:16:42 09:19:44 20° 68° (ENE) 09:22:47 437.425
TIGRISAT 24 May 09:23:21 09:26:02 17° 66° (ENE) 09:28:46 435.000
SEEDS 24 May 09:33:05 09:36:53 33° 289° (WNW) 09:40:38 437.485
M-CUBED/EXP-1 PRIME 24 May 09:37:50 09:40:40 17° 260° (W) 09:43:23 437.505
SO-50 24 May 09:46:29 09:49:33 18° 250° (WSW) 09:52:38 436.795
Oscar 11 24 May 09:46:53 09:51:11 57° 100° (E) 09:55:27 .
HO-68 24 May 09:47:36 09:54:09 39° 295° (WNW) 10:00:40 435.675
DELFI C3 24 May 09:51:02 09:53:19 15° 93° (E) 09:55:36 145.870
UNISAT 6 24 May 09:52:47 09:56:42 37° 72° (ENE) 10:00:42 437.425
FO-29 24 May 09:56:10 10:01:03 44° 70° (ENE) 10:06:00 435.910
SRMSAT 24 May 10:03:35 10:05:02 11° 185° (S) 10:06:31 437.500
NO-84 24 May 10:03:59 10:08:23 83° 314° (NW) 10:12:39 435.350 FM
AO-73 24 May 10:10:00 10:14:29 62° 285° (WNW) 10:18:59 145.935
ZACube-1 24 May 10:22:30 10:26:45 41° 288° (WNW) 10:31:02 437.345
CUBEBUG 2 24 May 10:24:12 10:26:53 16° 294° (WNW) 10:29:34 437.445
RS-15 24 May 10:31:01 10:42:03 36° 38° (NE) 10:52:36 29.354- 29.394
EO-88 24 May 10:34:11 10:37:36 34° 98° (E) 10:40:58 145.990 - 145.960
AIST 2D 24 May 10:35:24 10:35:58 10° 66° (ENE) 10:36:32 435.315
UWE-3 24 May 10:40:11 10:43:05 17° 294° (WNW) 10:46:01 435.000/436.395/437.385
AAUSAT CUBESAT 2 24 May 10:42:48 10:44:34 12° 295° (WNW) 10:46:20 437.432
PRISM 24 May 10:51:08 10:54:48 31° 262° (W) 10:58:30 437.425
EO-79 24 May 10:57:32 10:59:19 13° 64° (ENE) 11:01:07 145.935-145.965
TIGRISAT 24 May 10:58:24 11:02:23 40° 262° (W) 11:06:27 435.000
DELFI C3 24 May 11:24:37 11:28:12 35° 288° (WNW) 11:31:47 145.870
Oscar 11 24 May 11:24:52 11:26:47 13° 296° (WNW) 11:28:43 .
LO-87 24 May 11:27:00 11:29:34 19° 95° (E) 11:32:08 145.935 - 145.965
UNISAT 6 24 May 11:30:47 11:33:33 17° 267° (W) 11:36:21 437.425
YUBILEINY 24 May 11:31:14 11:37:12 19° 64° (ENE) 11:43:07 435.215
NANOSAT C BR1 24 May 11:42:14 11:46:02 36° 72° (ENE) 11:49:52 145.865
FO-29 24 May 11:42:48 11:46:27 19° 267° (W) 11:50:06 435.910
NO-84 24 May 11:43:35 11:46:31 18° 333° (NNW) 11:49:22 435.350 FM
POLYITAN 1 24 May 11:44:02 11:47:57 41° 72° (ENE) 11:51:56 437.675
QB50P2 24 May 11:52:20 11:56:27 58° 74° (ENE) 12:00:35 145.880/145.840
DUCHIFAT 1 24 May 11:54:16 11:58:12 44° 73° (ENE) 12:02:11 145.980
AIST 2D 24 May 12:05:23 12:08:44 43° 261° (W) 12:12:08 435.315
EO-88 24 May 12:08:58 12:10:57 14° 293° (WNW) 12:12:55 145.990 - 145.960
VELOX 1 24 May 12:22:29 12:24:05 12° 91° (E) 12:25:42 145.980
BUGSAT 1 24 May 12:23:48 12:27:13 27° 70° (ENE) 12:30:38 437.445
Oscar 19 24 May 12:30:16 12:33:19 16° 62° (ENE) 12:36:21 437.125/150
EO-79 24 May 12:30:31 12:34:36 53° 260° (W) 12:38:43 145.935-145.965
SPROUT 24 May 12:35:42 12:38:35 17° 94° (E) 12:41:26 437.525
RS-15 24 May 12:43:40 12:55:49 78° 244° (WSW) 13:07:19 29.354- 29.394
ESTCUBE 1 24 May 12:49:13 12:53:45 79° 284° (WNW) 12:58:14 437.505/2401.250
LO-87 24 May 13:00:06 13:02:56 23° 289° (WNW) 13:05:46 145.935 - 145.965
50 SAT 24 May 13:01:04 13:02:50 13° 93° (E) 13:04:36 437.505
DX 1 24 May 13:06:27 13:08:17 12° 92° (E) 13:10:06 434.975-435.025
NANOSAT C BR1 24 May 13:19:07 13:21:50 17° 267° (W) 13:24:35 145.865
POLYITAN 1 24 May 13:21:36 13:23:56 15° 268° (W) 13:26:17 437.675
Gurwin Techsat 1B 24 May 13:24:33 13:29:08 31° 68° (ENE) 13:33:45 435.225
YUBILEINY 24 May 13:26:15 13:35:07 86° 266° (W) 13:43:58 435.215
QB50P2 24 May 13:31:44 13:32:35 10° 269° (W) 13:33:24 145.880/145.840
DUCHIFAT 1 24 May 13:31:58 13:34:05 14° 268° (W) 13:36:13 145.980
AO-85 24 May 13:43:21 13:46:32 22° 50° (NE) 13:49:49 145.980
VELOX 1 24 May 13:56:34 14:00:52 56° 286° (WNW) 14:05:09 145.980
BUGSAT 1 24 May 13:59:35 14:02:34 20° 265° (W) 14:05:33 437.445
Oscar 19 24 May 14:06:55 14:12:03 64° 258° (WSW) 14:17:15 437.125/150
SPROUT 24 May 14:10:39 14:14:34 36° 288° (WNW) 14:18:29 437.525
AO-7 24 May 14:24:33 14:31:22 30° 58° (ENE) 14:38:12 .
50 SAT 24 May 14:32:48 14:35:46 28° 288° (WNW) 14:38:42 437.505
O/OREOS (USA 219) 24 May 14:34:02 14:38:27 51° 65° (ENE) 14:42:49 437.305
UKube-1 24 May 14:38:00 14:42:19 84° 285° (WNW) 14:46:36 .
DX 1 24 May 14:40:32 14:44:45 52° 287° (WNW) 14:48:57 434.975-435.025
BEESAT 3 24 May 14:45:20 14:48:50 28° 51° (NE) 14:52:16 437.485
BEESAT 24 May 14:51:29 14:52:18 10° 90° (E) 14:53:07 436.000
RS-15 24 May 14:59:30 15:06:04 17° 264° (W) 15:12:29 29.354- 29.394
ITAMSAT 1 24 May 15:03:25 15:08:06 36° 69° (ENE) 15:12:48 435.822/435.867
Gurwin Techsat 1B 24 May 15:04:18 15:08:59 32° 263° (W) 15:13:42 435.225
NO-84 24 May 15:04:25 15:04:49 10° 15° (NNE) 15:05:14 435.350 FM
AO-85 24 May 15:23:15 15:26:56 34° 245° (WSW) 15:30:51 145.980
YUBILEINY 24 May 15:25:54 15:30:30 15° 283° (WNW) 15:35:07 435.215
ITUPSAT 1 24 May 15:50:37 15:55:15 46° 99° (E) 15:59:52 437.325
BEESAT 2 24 May 15:56:31 16:00:32 58° 57° (ENE) 16:04:30 435.950
